Date String (YYYY-MM-DD hh:mm:ss) UTC,Instrument flags,Ambient pressure (hPa),Sample flow (lpm),Bypass flow (lpm),Sample temperature (°C),Ambient temperature (°C),ASC tube jacket temperature (°C),LED temperature (°C),Box temperature (°C),Sample RH (%),Span deviation,Mass concentration (μg/m³),Mass concentration (μg/m³),Mass concentration (μg/m³)
DateTimeUTC,F1_M11,P_M11,Q1_M11,Q2_M11,T1_M11,T2_M11,T3_M11,T4_M11,T5_M11,U1_M11,ZSPAN_M11,X0_M11,X2_M11,X1_M11
2022-08-12 03:00:00,,0829.3,5.00,0.00,29.4,28.3,00.0,38.1,31.4,26.1,0000.0,0014.97,0006.56,0005.37
2022-08-12 03:01:00,,0829.2,5.00,0.00,29.5,28.4,00.0,38.2,31.5,26.2,0000.0,0015.28,0006.58,0005.36
2022-08-12 03:02:00,,0829.3,5.01,0.00,29.5,28.0,00.0,38.1,31.3,26.5,0000.0,0015.47,0006.56,0005.36
2022-08-12 03:03:00,,0829.3,5.01,0.00,29.4,27.3,00.0,38.1,31.2,27.2,0000.0,0016.69,0006.60,0005.36
2022-08-12 03:04:00,,0829.3,4.99,0.00,29.4,27.1,00.0,38.1,31.1,28.8,0000.0,0018.74,0006.74,0005.40
2022-08-12 03:05:00,,0829.4,5.00,0.00,29.3,27.1,00.0,38.1,31.0,30.8,0000.0,0018.90,0006.82,0005.44
2022-08-12 03:06:00,,0829.3,5.00,0.00,29.2,27.2,00.0,38.0,31.0,30.0,0000.0,0019.28,0006.87,0005.49
2022-08-12 03:07:00,,0829.3,4.99,0.00,29.2,27.4,00.0,38.0,31.1,31.2,0000.0,0019.43,0006.91,0005.51
2022-08-12 03:08:00,,0829.4,5.00,0.00,29.3,27.6,00.0,38.1,31.2,32.0,0000.0,0019.51,0006.95,0005.56
2022-08-12 03:09:00,,0829.3,5.00,0.00,29.3,27.8,00.0,38.1,31.2,31.9,0000.0,0018.45,0006.99,0005.60
2022-08-12 03:10:00,,0829.3,4.99,0.00,29.3,28.0,00.0,38.1,31.3,31.1,0000.0,0019.37,0007.06,0005.63
2022-08-12 03:11:00,,0829.3,5.01,0.00,29.4,28.1,00.0,38.1,31.4,31.1,0000.0,0019.71,0007.17,0005.68
2022-08-12 03:12:00,,0829.4,4.99,0.00,29.4,28.3,00.0,38.1,31.4,32.1,0000.0,0019.58,0007.24,0005.73
2022-08-12 03:13:00,,0829.3,5.00,0.00,29.4,28.4,00.0,38.1,31.4,31.5,0000.0,0019.76,0007.35,0005.79
2022-08-12 03:14:00,,0829.4,5.00,0.00,29.5,28.2,00.0,38.1,31.4,31.1,0000.0,0020.08,0007.46,0005.85
2022-08-12 03:15:00,,0829.5,5.00,0.00,29.4,27.5,00.0,38.1,31.2,31.7,0000.0,0018.91,0007.40,0005.89
2022-08-12 03:16:00,,0829.4,5.00,0.00,29.4,27.1,00.0,38.1,31.1,32.0,0000.0,0019.20,0007.40,0005.93
2022-08-12 03:17:00,,0829.4,5.00,0.00,29.3,27.1,00.0,38.1,31.1,32.5,0000.0,0018.54,0007.43,0005.94
2022-08-12 03:18:00,,0829.5,5.00,0.00,29.3,27.2,00.0,38.1,31.0,33.0,0000.0,0018.63,0007.46,0005.98
2022-08-12 03:19:00,,0829.5,5.00,0.00,29.2,27.4,00.0,38.0,31.0,33.3,0000.0,0018.84,0007.54,0006.02
2022-08-12 03:20:00,,0829.5,4.99,0.00,29.2,27.5,00.0,38.0,31.1,33.2,0000.0,0019.02,0007.61,0006.07
2022-08-12 03:21:00,,0829.6,5.00,0.00,29.3,27.7,00.0,38.1,31.2,33.0,0000.0,0018.55,0007.66,0006.13
2022-08-12 03:22:00,,0829.5,5.00,0.00,29.3,27.9,00.0,38.1,31.3,32.3,0000.0,0017.62,0007.67,0006.18
2022-08-12 03:23:00,,0829.5,5.00,0.00,29.3,28.1,00.0,38.1,31.3,32.3,0000.0,0017.86,0007.65,0006.22
2022-08-12 03:24:00,,0829.5,5.00,0.00,29.4,28.2,00.0,38.1,31.4,31.1,0000.0,0018.61,0007.67,0006.26
2022-08-12 03:25:00,,0829.5,5.00,0.00,29.4,28.4,00.0,38.1,31.4,30.5,0000.0,0018.57,0007.62,0006.29
2022-08-12 03:26:00,,0829.5,5.00,0.00,29.5,28.5,00.0,38.2,31.5,29.4,0000.0,0018.29,0007.68,0006.30
2022-08-12 03:27:00,,0829.5,5.00,0.00,29.5,28.2,00.0,38.1,31.4,29.6,0000.0,0018.18,0007.75,0006.31
2022-08-12 03:28:00,,0829.5,5.00,0.00,29.4,27.5,00.0,38.1,31.2,29.9,0000.0,0019.43,0007.76,0006.33
2022-08-12 03:29:00,,0829.5,4.99,0.00,29.4,27.1,00.0,38.1,31.1,29.9,0000.0,0019.41,0007.77,0006.36
2022-08-12 03:30:00,,0829.5,5.01,0.00,29.3,27.1,00.0,38.1,31.1,30.4,0000.0,0019.44,0007.74,0006.39
2022-08-12 03:31:00,,0829.5,4.98,0.00,29.3,27.2,00.0,38.1,31.0,29.9,0000.0,0019.28,0007.78,0006.39
2022-08-12 03:32:00,,0829.5,5.00,0.00,29.3,27.4,00.0,38.1,31.1,28.9,0000.0,0019.90,0007.80,0006.36
2022-08-12 03:33:00,,0829.5,5.01,0.00,29.3,27.6,00.0,38.1,31.1,28.6,0000.0,0020.84,0007.78,0006.34
2022-08-12 03:34:00,,0829.5,5.00,0.00,29.3,27.8,00.0,38.1,31.2,29.1,0000.0,0021.12,0007.79,0006.32
2022-08-12 03:35:00,,0829.5,5.00,0.00,29.3,28.0,00.0,38.1,31.3,29.1,0000.0,0020.60,0007.75,0006.29
2022-08-12 03:36:00,,0829.5,4.99,0.00,29.4,28.1,00.0,38.1,31.4,29.5,0000.0,0020.59,0007.78,0006.30
2022-08-12 03:37:00,,0829.5,5.02,0.00,29.4,28.3,00.0,38.1,31.4,29.4,0000.0,0020.49,0007.79,0006.30
2022-08-12 03:38:00,,0829.5,5.00,0.00,29.5,28.4,00.0,38.2,31.5,28.9,0000.0,0020.58,0007.80,0006.31
2022-08-12 03:39:00,,0829.5,5.00,0.00,29.5,28.3,00.0,38.1,31.4,28.8,0000.0,0020.61,0007.83,0006.30
2022-08-12 03:40:00,,0829.5,5.01,0.00,29.4,27.6,00.0,38.1,31.2,28.8,0000.0,0020.20,0007.87,0006.29
2022-08-12 03:41:00,,0829.5,5.00,0.00,29.4,27.1,00.0,38.1,31.2,28.4,0000.0,0020.20,0007.91,0006.27
2022-08-12 03:42:00,,0829.5,4.99,0.00,29.3,27.1,00.0,38.1,31.1,28.3,0000.0,0020.55,0007.88,0006.25
2022-08-12 03:43:00,,0829.5,5.01,0.00,29.3,27.2,00.0,38.1,31.1,28.4,0000.0,0020.45,0007.87,0006.25
2022-08-12 03:44:00,,0829.5,4.99,0.00,29.3,27.3,00.0,38.0,31.1,28.1,0000.0,0019.55,0007.86,0006.24
2022-08-12 03:45:00,,0829.6,5.02,0.00,29.3,27.5,00.0,38.0,31.1,28.0,0000.0,0018.98,0007.83,0006.23
2022-08-12 03:46:00,,0829.5,4.99,0.00,29.3,27.7,00.0,38.1,31.2,28.3,0000.0,0018.10,0007.83,0006.23
2022-08-12 03:47:00,,0829.6,5.01,0.00,29.3,27.9,00.0,38.1,31.3,28.1,0000.0,0017.70,0007.81,0006.21
2022-08-12 03:48:00,,0829.5,5.00,0.00,29.3,28.0,00.0,38.1,31.3,28.0,0000.0,0017.90,0007.80,0006.19
2022-08-12 03:49:00,,0829.5,5.00,0.00,29.4,28.2,00.0,38.1,31.4,27.5,0000.0,0018.53,0007.83,0006.17
2022-08-12 03:50:00,,0829.5,5.00,0.00,29.4,28.3,00.0,38.1,31.4,26.9,0000.0,0017.16,0007.75,0006.13
2022-08-12 03:51:00,,0829.5,5.00,0.00,29.4,28.5,00.0,38.2,31.5,27.1,0000.0,0017.28,0007.68,0006.07
2022-08-12 03:52:00,,0829.5,5.00,0.00,29.5,28.5,00.0,38.2,31.5,27.4,0000.0,0017.78,0007.61,0006.01
2022-08-12 03:53:00,,0829.5,5.01,0.00,29.5,27.8,00.0,38.1,31.3,27.3,0000.0,0017.51,0007.54,0005.97
2022-08-12 03:54:00,,0829.5,5.00,0.00,29.4,27.2,00.0,38.1,31.2,26.8,0000.0,0018.06,0007.52,0005.92
2022-08-12 03:55:00,,0829.5,5.00,0.00,29.4,27.1,00.0,38.1,31.1,26.5,0000.0,0018.37,0007.49,0005.89
2022-08-12 03:56:00,,0829.5,4.99,0.00,29.3,27.1,00.0,38.1,31.0,26.5,0000.0,0018.36,0007.44,0005.84
2022-08-12 03:57:00,,0829.5,5.01,0.00,29.2,27.2,00.0,38.1,31.0,26.7,0000.0,0018.17,0007.39,0005.78
2022-08-12 03:58:00,,0829.5,4.99,0.00,29.2,27.4,00.0,38.1,31.1,26.6,0000.0,0017.55,0007.30,0005.72
2022-08-12 03:59:00,,0829.5,5.01,0.00,29.3,27.6,00.0,38.1,31.2,26.6,0000.0,0016.98,0007.19,0005.66
